GW4137 Weather Reports


time (UTC)temp
F
wind
direction
speed
knots
gust
knots
rain 1hr
in
rain 24hr
in
rain mn
in
humidity
%
barometer
mb
20260509134555 54 23 0.0 2.6 0.00 0.00 0.00 55 1015.7
20260509133058 53 0 0.9 4.3 0.00 0.00 0.00 58 1015.6
20260509131556 52 0 0.0 5.2 0.00 0.00 0.00 57 1015.5
20260509130050 52 53 5.2 8.7 0.00 0.00 0.00 56 1015.3
20260509124554 52 0 0.0 7.0 0.00 0.00 0.00 59 1014.9
20260509123055 52 0 1.7 4.3 0.00 0.00 0.00 58 1014.7
20260509121555 51 0 0.0 0.0 0.00 0.00 0.00 59 1014.7
20260509120055 51 319 2.6 7.0 0.00 0.00 0.00 62 1014.5
20260509114555 51 0 0.0 2.6 0.00 0.00 0.00 62 1014.4
20260509113057 52 0 0.0 3.5 0.00 0.00 0.00 61 1014.2
20260509111558 52 0 2.6 6.1 0.00 0.00 0.00 60 1013.9
20260509110054 52 325 2.6 5.2 0.00 0.00 0.00 61 1013.8
20260509104606 52 329 2.6 4.3 0.00 0.00 0.00 62 1013.7
20260509103107 51 0 0.0 2.6 0.00 0.00 0.00 62 1013.5
20260509101622 52 0 0.0 0.9 0.00 0.00 0.00 59 1013.3
20260509100059 52 0 0.0 7.0 0.00 0.00 0.00 53 1013.2
20260509094601 52 328 2.6 4.3 0.00 0.00 0.00 52 1013.1
20260509093058 52 325 0.0 2.6 0.00 0.00 0.00 53 1012.9
20260509091556 52 0 1.7 3.5 0.00 0.00 0.00 54 1012.9
20260509090058 51 0 0.0 2.6 0.00 0.00 0.00 56 1012.8
20260509084600 52 0 0.0 1.7 0.00 0.00 0.00 56 1012.5
20260509083106 52 325 3.5 5.2 0.00 0.00 0.00 58 1012.7
20260509081552 53 325 0.9 3.5 0.00 0.00 0.00 53 1012.5
20260509080052 53 325 1.7 3.5 0.00 0.00 0.00 49 1012.5
20260509074608 55 325 1.7 4.3 0.00 0.00 0.00 48 1012.5
20260509073103 56 325 0.9 3.5 0.00 0.00 0.00 47 1012.4
20260509071556 56 0 0.0 0.9 0.00 0.00 0.00 45 1012.3
20260509070056 57 0 0.9 8.7 0.00 0.00 0.00 51 1012.2
20260509064550 57 330 1.7 8.7 0.00 0.00 0.00 50 1012.2
20260509063059 57 344 3.5 8.7 0.00 0.00 0.00 43 1012.2
20260509061549 57 345 4.3 8.7 0.00 0.00 0.00 42 1012.1
20260509060108 59 352 9.6 16.5 0.00 0.00 0.00 49 1011.9
20260509054552 59 316 10.4 19.1 0.00 0.00 0.00 47 1011.6
20260509053102 59 306 8.7 14.8 0.00 0.00 0.00 49 1011.5
20260509051558 60 285 16.5 26.1 0.00 0.00 0.00 48 1011.0
20260509050050 61 288 11.3 20.9 0.00 0.00 0.00 44 1010.8
20260509044552 61 283 8.7 18.2 0.00 0.00 0.00 42 1010.4
20260509043053 62 287 7.0 13.0 0.00 0.00 0.00 40 1010.5
20260509041550 63 288 1.7 11.3 0.00 0.00 0.00 35 1010.7
20260509040106 64 330 3.5 10.4 0.00 0.00 0.00 28 1010.7
20260509034550 63 320 0.9 5.2 0.00 0.00 0.00 28 1010.3
20260509033109 61 5 0.0 3.5 0.00 0.00 0.00 28 1009.9
20260509031550 62 5 0.0 0.0 0.00 0.00 0.00 27 1009.6
20260509030053 64 0 0.0 0.0 0.00 0.00 0.00 26 1009.3
20260509024603 64 0 0.0 0.9 0.00 0.00 0.00 25 1009.0
20260509023056 65 5 1.7 5.2 0.00 0.00 0.00 25 1008.6
20260509021553 67 5 3.5 8.7 0.00 0.00 0.00 23 1008.4
20260509020105 68 360 9.6 13.9 0.00 0.00 0.00 22 1008.1
20260509014554 69 352 10.4 15.6 0.00 0.00 0.00 21 1008.0
20260509013052 70 344 9.6 15.6 0.00 0.00 0.00 20 1008.1
20260509011601 70 352 10.4 15.6 0.00 0.00 0.00 20 1008.1
20260509010059 70 333 13.0 16.5 0.00 0.00 0.00 20 1008.0
20260509004553 71 340 13.0 18.2 0.00 0.00 0.00 19 1008.1
20260509003056 71 340 12.2 20.0 0.00 0.00 0.00 20 1008.1
20260509001550 72 330 13.9 20.9 0.00 0.00 0.00 18 1008.0
20260509000052 72 342 15.6 22.6 0.00 0.00 0.00 18 1008.0
20260508234604 72 304 11.3 23.5 0.00 0.00 0.00 18 1008.0
20260508233105 72 319 17.4 26.9 0.00 0.00 0.00 17 1008.0
20260508231550 73 327 19.1 26.9 0.00 0.00 0.00 18 1008.0
20260508230057 73 319 13.0 21.7 0.00 0.00 0.00 18 1007.8
20260508224556 74 331 15.6 25.2 0.00 0.00 0.00 18 1008.0
20260508223055 74 346 17.4 25.2 0.00 0.00 0.00 19 1008.0
20260508221600 73 323 14.8 26.1 0.00 0.00 0.00 20 1007.9
20260508220055 74 326 13.9 22.6 0.00 0.00 0.00 19 1007.9
20260508214549 74 315 13.9 23.5 0.00 0.00 0.00 18 1008.1
20260508213054 74 292 11.3 26.1 0.00 0.00 0.00 18 1008.1
20260508211550 75 344 9.6 25.2 0.00 0.00 0.00 20 1008.1
20260508210056 74 292 17.4 26.1 0.00 0.00 0.00 19 1008.1
20260508204554 74 302 12.2 26.1 0.00 0.00 0.00 18 1008.1
20260508203052 74 304 12.2 23.5 0.00 0.00 0.00 18 1008.4
20260508201554 74 296 12.2 26.1 0.00 0.00 0.00 20 1008.2
20260508200053 73 248 12.2 23.5 0.00 0.00 0.00 21 1008.3
20260508194605 74 298 13.0 20.9 0.00 0.00 0.00 22 1008.5
20260508193108 73 331 12.2 20.9 0.00 0.00 0.00 21 1008.7
20260508191601 73 288 8.7 18.2 0.00 0.00 0.00 22 1008.7
20260508190108 72 284 12.2 18.2 0.00 0.00 0.00 23 1009.1
20260508184552 72 282 11.3 22.6 0.00 0.00 0.00 23 1009.3
20260508183057 71 246 7.8 14.8 0.00 0.00 0.00 24 1009.7
20260508181602 71 259 7.8 13.9 0.00 0.00 0.00 27 1010.0
20260508180057 69 244 6.1 13.0 0.00 0.00 0.00 32 1010.0
20260508174555 68 262 6.1 12.2 0.00 0.00 0.00 34 1010.3
20260508173055 68 264 7.8 12.2 0.00 0.00 0.00 35 1010.3
20260508171556 67 282 7.8 11.3 0.00 0.00 0.00 36 1010.5
20260508170059 66 287 3.5 11.3 0.00 0.00 0.00 41 1010.7
20260508164604 64 241 6.1 12.2 0.00 0.00 0.00 47 1010.8
20260508163109 63 270 5.2 10.4 0.00 0.00 0.00 49 1011.0
20260508161558 62 250 6.1 11.3 0.00 0.00 0.00 50 1011.2
20260508160055 61 259 6.1 9.6 0.00 0.00 0.00 52 1011.4
20260508154558 59 264 5.2 10.4 0.00 0.00 0.00 55 1011.5
20260508153106 58 254 5.2 7.8 0.00 0.00 0.00 57 1011.8
20260508151556 57 250 2.6 6.1 0.00 0.00 0.00 61 1011.8
20260508150053 54 0 0.9 5.2 0.00 0.00 0.00 65 1011.8
20260508144551 53 209 1.7 5.2 0.00 0.00 0.00 68 1011.8
20260508143111 51 224 2.6 5.2 0.00 0.00 0.00 71 1012.0
20260508141558 50 225 3.5 7.0 0.00 0.00 0.00 72 1012.1
20260508140107 49 220 2.6 4.3 0.00 0.00 0.00 75 1012.1